Regional Weather Roundup
Issued by NWS Glasgow, MT

Home | Current Version | Previous Version | Text Only | Print | Product List | Glossary On
Versions: 1 2 3 4 5 6 7 8 9 10 11 12 13 14 15 16 17 18 19 20 21 22 23 24 25 26 27
000
ASUS45 KGGW 291015
RWRGGW
HOURLY REGIONAL WEATHER ROUNDUP FOR NORTHEAST MONTANA
NATIONAL WEATHER SERVICE GLASGOW MONTANA
400 AM MDT MON MAY 29 2017

NOTE: "FAIR" INDICATES FEW OR NO CLOUDS BELOW 12,000 FEET WITH NO
SIGNIFICANT WEATHER AND/OR OBSTRUCTIONS TO VISISBILITY.

NORTHEAST MONTANA


CITY           SKY/WX    TMP DP  RH WIND       PRES   REMARKS
GLASGOW        CLEAR     40  31  70 N6        30.18S
PLENTYWOOD       N/A     41  35  79 W6          N/A
WOLF POINT     CLEAR     45  35  68 NW8       30.17R
JORDAN           N/A     37  27  67 W6        30.20R
WINNETT          N/A     34  32  92 S2          N/A
SIDNEY         CLEAR     44  35  70 NW13      30.13R
GLENDIVE       CLEAR     42  30  62 NW13      30.16R
MALTA            N/A     38  32  79 W3          N/A
SCOBEY           N/A     41  30  65 CALM      30.13
OPHEIM           N/A     37  32  81 N6        30.04R

FORT PECK REPORTS


CITY           SKY/WX    TMP DP  RH WIND       PRES   REMARKS
FORT PECK        N/A     42  32  67 W7          N/A

SOUTHEAST MONTANA


CITY           SKY/WX    TMP DP  RH WIND       PRES   REMARKS
BILLINGS       PTCLDY    50  41  71 N6        30.23R
MILES CITY     CLEAR     42  26  53 NW10      30.17R
BAKER          CLEAR     41  31  67 NW3       30.15R
LIVINGSTON     CLEAR     39  38  96 NW6       30.27R

CENTRAL MONTANA


CITY           SKY/WX    TMP DP  RH WIND       PRES   REMARKS
HAVRE          CLEAR     39  30  70 CALM      30.24S
LEWISTOWN      CLEAR     41  36  82 SE5       30.26R
GREAT FALLS    CLEAR     43  41  93 SW7       30.25S
CUT BANK       MOCLDY    47  40  76 NE3       30.24F
HELENA         MOCLDY    50  43  77 CALM      30.25R
BUTTE          CLEAR     40  36  86 SE6       30.30S
BOZEMAN        CLEAR     41  39  93 SE3       30.27R

WESTERN MONTANA


CITY           SKY/WX    TMP DP  RH WIND       PRES   REMARKS
MISSOULA       CLEAR     52  43  71 N3        30.19S
KALISPELL      NOT AVBL

NORTH DAKOTA


CITY           SKY/WX    TMP DP  RH WIND       PRES   REMARKS
WILLISTON      PTCLDY    47  38  71 NW13      30.10S
DICKINSON      CLEAR     39  35  86 NW9       30.07R
MINOT          CLOUDY    52  43  71 NW17G26   29.98R
BISMARCK       CLOUDY    51  43  74 NW13G18   30.00R

SOUTHERN SASKATCHEWAN


CITY           SKY/WX    TMP DP  RH WIND       PRES   REMARKS
REGINA         MOCLDY    46  41  81 NW13      30.11S
MOOSE JAW      MOCLDY    43  37  81 W10       30.16
ESTEVAN        PTCLDY    45  43  93 W12       30.06R
SWIFT CURRENT  CLEAR     37  32  81 W7        30.21R





USA.gov is the U.S. government's official web portal to all federal, state and local government web resources and services.